IZ3TCG-13 Weather Reports


time (UTC)temp
C
wind
direction
speed
KPH
gust
KPH
rain 1hr
cm
rain 24hr
cm
rain mn
cm
humidity
%
barometer
mb
20260508014004 13 351 3.2 6.4 0.00 0.00 0.00 96 1015.0
20260508013604 14 345 3.2 6.4 0.00 0.00 0.00 96 1015.2
20260508013204 14 347 1.6 6.4 0.00 0.00 0.00 95 1015.2
20260508013014 14 349 0.0 6.4 0.00 0.00 0.00 95 1015.0
20260508012613 14 346 1.6 6.4 0.00 0.00 0.00 95 1015.2
20260508012003 14 2 0.0 6.4 0.00 0.00 0.00 95 1015.4
20260508011603 14 4 0.0 6.4 0.00 0.00 0.00 95 1015.2
20260508011203 14 8 0.0 6.4 0.00 0.00 0.00 94 1015.2
20260508010804 14 4 0.0 6.4 0.00 0.00 0.00 94 1015.3
20260508010404 14 3 3.2 6.4 0.00 0.00 0.00 94 1015.3
20260508010004 15 7 1.6 6.4 0.00 0.00 0.00 94 1015.4
20260508005814 15 5 0.0 9.7 0.00 0.00 0.00 94 1015.2
20260508005204 15 21 1.6 9.7 0.00 0.00 0.00 94 1015.4
20260508004803 15 28 1.6 6.4 0.00 0.00 0.00 94 1015.3
20260508004403 15 32 3.2 6.4 0.00 0.00 0.00 93 1015.3
20260508004004 15 32 1.6 6.4 0.00 0.00 0.00 93 1015.3
20260508003603 15 32 1.6 6.4 0.00 0.00 0.00 93 1015.4
20260508003204 15 21 3.2 11.3 0.00 0.00 0.00 93 1015.4
20260508002804 15 20 3.2 11.3 0.00 0.00 0.00 93 1015.3
20260508002404 15 9 6.4 11.3 0.00 0.00 0.00 93 1015.0
20260508002003 15 350 1.6 6.4 0.00 0.00 0.00 93 1015.1
20260508001603 15 350 0.0 6.4 0.00 0.00 0.00 93 1015.4
20260508001204 15 347 3.2 6.4 0.00 0.00 0.00 93 1015.2
20260508000804 15 340 3.2 6.4 0.00 0.00 0.00 92 1015.2
20260508000405 15 350 1.6 6.4 0.00 0.00 0.00 92 1015.4
20260508000004 15 359 1.6 9.7 0.00 0.00 0.00 92 1015.5
20260507235814 15 3 3.2 9.7 0.00 0.00 0.00 92 1015.1
20260507235203 15 1 3.2 12.9 0.00 0.00 0.00 91 1015.3
20260507234804 15 11 3.2 12.9 0.00 0.00 0.00 91 1015.3
20260507234404 15 11 4.8 12.9 0.00 0.00 0.00 91 1015.2
20260507234217 15 14 6.4 12.9 0.00 0.00 0.00 90 1015.3
20260507233604 15 357 3.2 12.9 0.00 0.00 0.00 90 1015.4
20260507233203 15 357 6.4 12.9 0.00 0.00 0.00 90 1015.6
20260507232804 15 350 1.6 6.4 0.00 0.00 0.00 90 1015.4
20260507232614 15 351 3.2 6.4 0.00 0.00 0.00 90 1015.5
20260507232004 15 355 3.2 6.4 0.00 0.00 0.00 90 1015.5
20260507231603 15 349 3.2 6.4 0.00 0.00 0.00 90 1015.5
20260507231203 15 347 3.2 6.4 0.00 0.00 0.00 90 1015.3
20260507230804 15 347 0.0 6.4 0.00 0.00 0.00 91 1015.6
20260507230403 15 350 3.2 6.4 0.00 0.00 0.00 91 1015.4
20260507230004 15 354 3.2 6.4 0.00 0.00 0.00 91 1015.1
20260507225603 15 2 3.2 6.4 0.00 0.00 0.00 91 1015.1
20260507225414 15 3 1.6 6.4 0.00 0.00 0.00 91 1015.1
20260507224803 15 3 3.2 6.4 0.00 0.00 0.00 91 1015.2
20260507224403 15 357 0.0 6.4 0.00 0.00 0.00 91 1015.3
20260507224004 15 357 0.0 6.4 0.00 0.00 0.00 91 1015.4
20260507223604 15 360 1.6 6.4 0.00 0.00 0.00 91 1015.5
20260507223204 15 11 0.0 6.4 0.00 0.00 0.00 91 1015.4
20260507222804 15 2 1.6 6.4 0.00 0.00 0.00 91 1015.5
20260507222403 15 357 3.2 6.4 0.00 0.00 0.00 91 1015.5
20260507222004 15 14 0.0 6.4 0.00 0.00 0.00 90 1015.2
20260507221814 15 15 1.6 6.4 0.00 0.00 0.00 90 1015.3
20260507221204 15 2 3.2 6.4 0.00 0.00 0.00 90 1015.2
20260507220804 15 356 3.2 6.4 0.00 0.00 0.00 90 1015.1
20260507220403 15 6 0.0 6.4 0.00 0.00 0.00 89 1015.1
20260507220007 15 14 0.0 6.4 0.00 0.00 0.00 89 1015.4
20260507215603 15 12 1.6 6.4 0.00 0.00 0.00 89 1015.1
20260507215204 15 9 3.2 6.4 0.00 0.00 0.00 89 1015.1
20260507214803 15 5 1.6 3.2 0.00 0.00 0.00 88 1015.4
20260507214614 15 7 0.0 3.2 0.00 0.00 0.00 88 1015.4
20260507214003 15 4 1.6 6.4 0.00 0.00 0.00 88 1015.0
20260507213812 15 2 1.6 6.4 0.00 0.00 0.00 87 1015.1
20260507213204 15 15 3.2 6.4 0.00 0.00 0.00 87 1014.8
20260507212804 15 22 3.2 6.4 0.00 0.00 0.00 86 1015.2
20260507212404 15 13 1.6 6.4 0.00 0.00 0.00 86 1015.1
20260507212004 15 3 3.2 6.4 0.00 0.00 0.00 86 1014.9
20260507211604 15 360 1.6 6.4 0.00 0.00 0.00 85 1015.0
20260507211414 16 359 0.0 6.4 0.00 0.00 0.00 85 1015.0
20260507210804 16 347 1.6 6.4 0.00 0.00 0.00 84 1015.1
20260507210618 16 339 1.6 6.4 0.00 0.00 0.00 84 1015.1
20260507210005 16 331 0.0 6.4 0.00 0.00 0.00 85 1015.2
20260507205603 15 328 1.6 6.4 0.00 0.00 0.00 85 1015.0
20260507205204 16 309 0.0 6.4 0.00 0.00 0.00 85 1015.1
20260507204804 16 329 0.0 6.4 0.00 0.00 0.00 84 1015.1
20260507204614 16 334 0.0 6.4 0.00 0.00 0.00 83 1015.1
20260507204003 16 355 3.2 6.4 0.00 0.00 0.00 83 1015.0
20260507203813 16 357 1.6 6.4 0.00 0.00 0.00 83 1014.9
20260507203203 16 89 0.0 3.2 0.00 0.00 0.00 83 1014.9
20260507202804 16 90 0.0 3.2 0.00 0.00 0.00 82 1014.7
20260507202616 16 90 0.0 3.2 0.00 0.00 0.00 82 1015.0
20260507202004 15 0 0.0 0.0 0.00 0.00 0.00 83 1014.7
20260507201603 16 90 0.0 3.2 0.00 0.00 0.00 83 1014.7
20260507201204 16 90 0.0 3.2 0.00 0.00 0.00 83 1014.6
20260507201014 16 90 0.0 6.4 0.00 0.00 0.00 82 1014.4
20260507200613 16 93 0.0 6.4 0.00 0.00 0.00 81 1014.4
20260507200004 16 91 3.2 6.4 0.00 0.00 0.00 80 1014.4
20260507195604 16 87 1.6 11.3 0.00 0.00 0.00 80 1014.5
20260507195416 16 86 1.6 11.3 0.00 0.00 0.00 80 1014.4
20260507195015 16 79 0.0 11.3 0.00 0.00 0.00 79 1014.5
20260507194404 16 82 6.4 11.3 0.00 0.00 0.00 79 1014.5
20260507194004 16 92 1.6 6.4 0.00 0.00 0.00 79 1014.3
20260507193814 16 95 3.2 9.7 0.00 0.00 0.00 79 1014.3
20260507193203 17 94 3.2 9.7 0.00 0.00 0.00 79 1014.1
20260507192803 17 94 3.2 9.7 0.00 0.00 0.00 78 1014.2
20260507192404 17 94 3.2 11.3 0.00 0.00 0.00 79 1014.2
20260507192216 17 91 1.6 11.3 0.00 0.00 0.00 79 1014.3
20260507191604 17 85 4.8 11.3 0.00 0.00 0.00 76 1014.2
20260507191204 17 91 4.8 9.7 0.00 0.00 0.00 76 1013.8
20260507190803 17 88 3.2 9.7 0.00 0.00 0.00 76 1013.9
20260507190404 17 83 3.2 9.7 0.00 0.00 0.00 77 1013.7
20260507190005 17 78 3.2 9.7 0.00 0.00 0.00 78 1013.7
20260507185603 18 80 6.4 9.7 0.00 0.00 0.00 77 1013.5
20260507185203 18 83 3.2 6.4 0.00 0.00 0.00 78 1013.4
20260507184803 18 87 6.4 6.4 0.00 0.00 0.00 78 1013.7
20260507184403 18 90 1.6 6.4 0.00 0.00 0.00 78 1013.4
20260507184004 18 84 3.2 11.3 0.00 0.00 0.00 77 1013.4
20260507183604 18 85 1.6 11.3 0.00 0.00 0.00 76 1013.3
20260507183204 18 84 4.8 11.3 0.00 0.00 0.00 75 1013.3
20260507182803 18 84 1.6 6.4 0.00 0.00 0.00 74 1013.1
20260507182403 18 85 3.2 6.4 0.00 0.00 0.00 72 1013.1
20260507182003 18 86 1.6 6.4 0.00 0.00 0.00 73 1013.0
20260507181603 19 89 1.6 6.4 0.00 0.00 0.00 73 1013.1
20260507181203 19 90 0.0 11.3 0.00 0.00 0.00 73 1013.1
20260507180804 19 89 3.2 11.3 0.00 0.00 0.00 74 1013.0
20260507180614 19 87 3.2 11.3 0.00 0.00 0.00 74 1012.8
20260507180004 19 75 3.2 6.4 0.00 0.00 0.00 77 1012.6
20260507175603 20 72 3.2 6.4 0.00 0.00 0.00 76 1012.9
20260507175417 20 77 1.6 6.4 0.00 0.00 0.00 76 1012.6
20260507174803 20 63 3.2 9.7 0.00 0.00 0.00 75 1012.6
20260507174403 20 49 3.2 9.7 0.00 0.00 0.00 74 1012.6
20260507174004 20 41 0.0 9.7 0.00 0.00 0.00 74 1012.3
20260507173603 20 44 3.2 9.7 0.00 0.00 0.00 73 1012.5
20260507173204 20 24 0.0 9.7 0.00 0.00 0.00 68 1012.3
20260507172804 21 24 3.2 6.4 0.00 0.00 0.00 66 1012.4
20260507172404 20 20 0.0 6.4 0.00 0.00 0.00 67 1012.4
20260507172004 20 7 1.6 11.3 0.00 0.00 0.00 67 1012.4
20260507171603 21 1 1.6 11.3 0.00 0.00 0.00 67 1012.5
20260507171204 21 9 3.2 11.3 0.00 0.00 0.00 66 1012.1
20260507170804 21 15 1.6 9.7 0.00 0.00 0.00 63 1012.1
20260507170404 21 23 4.8 9.7 0.00 0.00 0.00 63 1012.0
20260507170004 21 22 1.6 9.7 0.00 0.00 0.00 62 1012.1
20260507165604 21 18 0.0 6.4 0.00 0.00 0.00 62 1011.9
20260507165204 21 5 0.0 6.4 0.00 0.00 0.00 62 1012.0
20260507164803 21 354 1.6 6.4 0.00 0.00 0.00 62 1011.9
20260507164404 21 348 1.6 6.4 0.00 0.00 0.00 61 1012.1
20260507164005 21 335 1.6 6.4 0.00 0.00 0.00 59 1012.2
20260507163603 21 297 1.6 6.4 0.00 0.00 0.00 57 1012.1
20260507163205 21 271 0.0 6.4 0.00 0.00 0.00 56 1012.1
20260507163014 21 266 1.6 6.4 0.00 0.00 0.00 54 1012.0
20260507162404 21 226 3.2 6.4 0.00 0.00 0.00 53 1012.1
20260507162213 21 199 1.6 6.4 0.00 0.00 0.00 55 1012.3
20260507161603 21 164 0.0 6.4 0.00 0.00 0.00 55 1012.0
20260507161203 21 161 3.2 6.4 0.00 0.00 0.00 54 1012.0
20260507160803 21 187 1.6 9.7 0.00 0.00 0.00 55 1011.9
20260507160404 22 199 1.6 9.7 0.00 0.00 0.00 54 1011.8
20260507160003 22 214 3.2 9.7 0.00 0.00 0.00 50 1012.2
20260507155603 22 215 3.2 9.7 0.00 0.00 0.00 50 1012.0
20260507155204 22 207 1.6 9.7 0.00 0.00 0.00 50 1012.1
20260507154803 22 197 1.6 9.7 0.00 0.00 0.00 52 1011.9
20260507154617 22 194 3.2 11.3 0.00 0.00 0.00 51 1012.1
20260507154217 23 214 3.2 11.3 0.00 0.00 0.00 51 1012.0
20260507153603 22 198 6.4 12.9 0.00 0.00 0.00 50 1011.9
20260507153203 22 173 4.8 12.9 0.00 0.00 0.00 49 1011.7
20260507153015 22 162 6.4 12.9 0.00 0.00 0.00 49 1011.8
20260507152614 22 160 3.2 12.9 0.00 0.00 0.00 52 1011.8
20260507152003 22 192 3.2 12.9 0.00 0.00 0.00 52 1011.9
20260507151604 22 181 4.8 12.9 0.00 0.00 0.00 51 1012.0
20260507151204 22 167 1.6 12.9 0.00 0.00 0.00 53 1011.8
20260507150803 22 159 4.8 11.3 0.00 0.00 0.00 51 1011.9
20260507150403 22 178 3.2 6.4 0.00 0.00 0.00 54 1011.6
20260507150004 22 174 0.0 11.3 0.00 0.00 0.00 52 1011.9
20260507145604 23 187 3.2 11.3 0.00 0.00 0.00 51 1012.0
20260507145203 24 176 3.2 12.9 0.00 0.00 0.00 48 1012.0
20260507144804 24 210 3.2 12.9 0.00 0.00 0.00 49 1012.1
20260507144404 23 220 4.8 12.9 0.00 0.00 0.00 50 1012.0
20260507144218 23 237 6.4 12.9 0.00 0.00 0.00 49 1011.9
20260507143603 24 191 1.6 6.4 0.00 0.00 0.00 49 1011.8
20260507143203 22 200 3.2 6.4 0.00 0.00 0.00 49 1011.9
20260507142804 22 217 3.2 11.3 0.00 0.00 0.00 53 1011.9
20260507142403 23 228 3.2 11.3 0.00 0.00 0.00 53 1011.9
20260507142214 23 231 3.2 11.3 0.00 0.00 0.00 50 1012.2
20260507141814 23 246 1.6 6.4 0.00 0.00 0.00 50 1011.9
20260507141203 22 264 3.2 6.4 0.00 0.00 0.00 51 1012.0
20260507140804 22 239 1.6 12.9 0.00 0.00 0.00 50 1012.0
20260507140403 23 205 0.0 12.9 0.00 0.00 0.00 50 1012.4
20260507140003 25 195 4.8 12.9 0.00 0.00 0.00 49 1012.1
20260507135603 25 217 3.2 9.7 0.00 0.00 0.00 48 1012.1
20260507135203 24 237 3.2 6.4 0.00 0.00 0.00 46 1012.0
20260507135014 23 247 1.6 6.4 0.00 0.00 0.00 48 1012.0
20260507134404 22 213 3.2 9.7 0.00 0.00 0.00 51 1012.3
20260507134004 22 193 1.6 9.7 0.00 0.00 0.00 53 1012.4
20260507133818 22 190 1.6 12.9 0.00 0.00 0.00 52 1012.3
20260507133204 24 223 1.6 12.9 0.00 0.00 0.00 48 1012.3
20260507133016 24 229 4.8 12.9 0.00 0.00 0.00 47 1012.3
20260507132615 23 219 3.2 11.3 0.00 0.00 0.00 47 1012.3
20260507132003 23 206 3.2 11.3 0.00 0.00 0.00 50 1012.4
20260507131603 23 210 4.8 12.9 0.00 0.00 0.00 49 1012.2
20260507131204 23 207 4.8 12.9 0.00 0.00 0.00 51 1012.3
20260507130803 25 205 6.4 11.3 0.00 0.03 0.00 47 1012.3
20260507130404 24 207 1.6 11.3 0.00 0.10 0.00 50 1012.2
20260507130004 23 206 4.8 12.9 0.00 0.15 0.00 50 1012.2
20260507125816 23 207 4.8 12.9 0.00 0.23 0.00 52 1012.2
20260507125203 23 204 6.4 12.9 0.00 0.46 0.00 52 1012.5
20260507125015 24 201 6.4 12.9 0.00 0.51 0.00 51 1012.3
20260507124404 23 212 3.2 9.7 0.00 0.61 0.00 51 1012.5
20260507124214 23 220 3.2 9.7 0.00 0.61 0.00 51 1012.3
20260507123818 23 217 6.4 9.7 0.00 0.61 0.00 52 1012.2
20260507123204 24 180 3.2 11.3 0.00 0.64 0.00 53 1012.5
20260507122803 23 193 4.8 11.3 0.00 0.64 0.00 52 1012.2
20260507122616 23 199 6.4 11.3 0.00 0.64 0.00 53 1012.3
20260507122004 23 198 3.2 11.3 0.00 0.64 0.00 55 1012.3
20260507121603 23 205 4.8 17.7 0.00 0.64 0.00 56 1012.3
20260507121203 23 201 3.2 17.7 0.00 0.64 0.00 57 1012.5
20260507120803 22 200 4.8 17.7 0.00 0.64 0.00 56 1012.2
20260507120404 23 177 3.2 9.7 0.00 0.64 0.00 54 1012.5
20260507120004 23 195 1.6 12.9 0.00 0.64 0.00 58 1012.4
20260507115604 23 227 3.2 12.9 0.00 0.64 0.00 56 1012.4
20260507115203 22 250 3.2 12.9 0.00 0.64 0.00 58 1012.4
20260507114804 23 235 4.8 12.9 0.00 0.64 0.00 56 1012.3
20260507114403 23 222 4.8 12.9 0.00 0.64 0.00 58 1012.5
20260507114003 22 223 1.6 9.7 0.00 0.64 0.00 56 1012.3
20260507113603 22 220 3.2 11.3 0.00 0.64 0.00 58 1012.3
20260507113203 22 189 3.2 11.3 0.00 0.64 0.00 57 1012.5
20260507112803 22 190 3.2 11.3 0.00 0.64 0.00 59 1012.4
20260507112404 23 185 6.4 11.3 0.00 0.64 0.00 56 1012.8
20260507112004 23 175 1.6 11.3 0.00 0.64 0.00 57 1012.4
20260507111603 22 182 3.2 11.3 0.00 0.64 0.00 57 1012.5
20260507111415 22 185 1.6 11.3 0.00 0.64 0.00 56 1012.7
20260507110803 22 191 1.6 12.9 0.00 0.64 0.00 60 1012.5
20260507110614 22 200 4.8 14.5 0.00 0.64 0.00 58 1012.6
20260507110004 22 202 4.8 14.5 0.00 0.64 0.00 59 1012.7
20260507105609 22 183 3.2 9.7 0.00 0.64 0.00 60 1012.8
20260507105203 22 173 3.2 12.9 0.00 0.64 0.00 63 1012.9
20260507104803 22 187 3.2 12.9 0.00 0.64 0.00 63 1012.6
20260507104403 21 187 4.8 12.9 0.00 0.64 0.00 62 1012.9
20260507104004 21 191 3.2 12.9 0.00 0.64 0.00 65 1012.9
20260507103603 22 200 3.2 9.7 0.00 0.64 0.00 59 1013.0
20260507103204 22 210 4.8 9.7 0.00 0.64 0.00 59 1013.0
20260507102803 23 213 0.0 9.7 0.00 0.64 0.00 59 1013.0
20260507102403 22 200 3.2 9.7 0.00 0.64 0.00 61 1013.1
20260507102006 22 155 4.8 6.4 0.00 0.64 0.00 58 1013.3
20260507101604 22 166 1.6 6.4 0.00 0.64 0.00 58 1013.1
20260507101203 22 208 1.6 6.4 0.00 0.64 0.00 60 1013.2
20260507100804 21 224 1.6 17.7 0.00 0.64 0.00 59 1013.3
20260507100404 21 223 3.2 17.7 0.00 0.64 0.00 64 1013.3
20260507095604 21 113 1.6 6.4 0.00 0.64 0.00 62 1015.4
20260507095204 21 95 0.0 9.7 0.00 0.64 0.00 69 1015.4
20260507094803 21 74 3.2 9.7 0.00 0.64 0.00 67 1015.4
20260507094617 21 73 3.2 9.7 0.00 0.64 0.00 69 1015.5
20260507094004 20 51 3.2 6.4 0.00 0.64 0.00 69 1015.6
20260507093603 21 230 0.0 6.4 0.00 0.64 0.00 69 1015.4
20260507093204 21 225 0.0 6.4 0.00 0.66 0.00 69 1015.4
20260507092803 21 233 3.2 6.4 0.00 0.66 0.00 69 1015.3
20260507092614 21 233 3.2 6.4 0.00 0.66 0.00 69 1015.5
20260507092003 20 236 3.2 6.4 0.00 0.69 0.00 74 1015.5
20260507091603 20 212 3.2 6.4 0.00 0.69 0.00 76 1015.3
20260507091204 19 197 0.0 6.4 0.00 0.71 0.00 78 1015.5
20260507090803 18 191 1.6 3.2 0.00 0.76 0.00 81 1015.2
20260507090404 18 169 1.6 3.2 0.00 0.76 0.00 79 1015.4
20260507090215 18 169 0.0 3.2 0.00 0.76 0.00 80 1015.5
20260507085603 19 132 3.2 3.2 0.00 0.76 0.00 76 1015.3
20260507085203 20 145 0.0 11.3 0.00 0.76 0.00 71 1015.4
20260507084803 20 234 0.0 11.3 0.00 0.76 0.00 68 1015.3
20260507084404 21 204 3.2 11.3 0.00 0.76 0.00 66 1015.3
20260507084004 21 155 1.6 6.4 0.00 0.76 0.00 65 1015.1
20260507083603 22 181 3.2 6.4 0.00 0.76 0.00 66 1015.5
20260507083416 22 243 0.0 6.4 0.00 0.76 0.00 65 1015.3
20260507082803 20 268 1.6 9.7 0.00 0.76 0.00 70 1015.4
20260507082614 20 271 3.2 9.7 0.00 0.76 0.00 74 1015.1
20260507082003 21 123 3.2 6.4 0.00 0.76 0.00 72 1015.3
20260507081603 20 128 1.6 6.4 0.00 0.76 0.00 75 1015.3
20260507081203 20 190 1.6 6.4 0.00 0.76 0.00 76 1015.0
20260507080804 19 225 0.0 6.4 0.00 0.76 0.00 75 1015.1
20260507080404 18 239 3.2 6.4 0.00 0.76 0.00 81 1015.1
20260507080004 19 238 0.0 6.4 0.00 0.76 0.00 79 1015.1
20260507075604 19 259 0.0 6.4 0.00 0.76 0.00 79 1015.3
20260507075203 19 256 0.0 3.2 0.00 0.76 0.00 78 1015.3
20260507074803 18 211 0.0 3.2 0.00 0.76 0.00 81 1015.3
20260507074403 17 221 0.0 3.2 0.00 0.76 0.00 84 1015.3
20260507074004 17 245 0.0 3.2 0.00 0.76 0.00 85 1015.1
20260507073817 18 246 1.6 3.2 0.00 0.76 0.00 84 1015.1
20260507073204 18 266 0.0 3.2 0.00 0.76 0.00 84 1015.0
20260507072804 20 351 0.0 3.2 0.00 0.76 0.00 82 1014.9
20260507072404 20 59 0.0 3.2 0.00 0.76 0.00 78 1015.0
20260507072003 19 67 1.6 3.2 0.00 0.76 0.00 82 1015.1
20260507071604 17 0 0.0 0.0 0.00 0.76 0.00 85 1015.0
20260507071203 17 0 0.0 0.0 0.00 0.76 0.00 87 1014.9
20260507070804 17 0 0.0 0.0 0.00 0.76 0.00 87 1014.9
20260507070404 17 22 0.0 3.2 0.00 0.76 0.00 88 1014.7
20260507070008 17 4 0.0 3.2 0.00 0.76 0.00 88 1014.9
20260507065604 17 324 0.0 3.2 0.00 0.76 0.00 90 1014.9
20260507065203 16 260 0.0 3.2 0.00 0.76 0.00 92 1014.7
20260507065014 16 255 0.0 3.2 0.00 0.79 0.00 92 1014.7
20260507064614 16 256 1.6 6.4 0.00 0.79 0.00 92 1014.7
20260507064004 17 264 0.0 6.4 0.00 0.79 0.00 92 1014.7
20260507063603 16 266 3.2 6.4 0.00 0.79 0.00 94 1014.8
20260507063203 16 216 1.6 3.2 0.00 0.79 0.00 95 1014.8
20260507062803 16 0 0.0 0.0 0.00 0.79 0.00 99 1014.5
20260507062403 16 262 0.0 3.2 0.00 0.79 0.00 99 1014.7
20260507062003 15 268 0.0 6.4 0.00 0.79 0.00 99 1014.6
20260507061603 15 267 1.6 6.4 0.00 0.79 0.00 99 1014.7
20260507061204 15 262 0.0 6.4 0.00 0.79 0.00 99 1014.5
20260507060803 15 234 0.0 3.2 0.00 0.79 0.00 99 1014.8
20260507060403 15 219 0.0 3.2 0.00 0.79 0.00 99 1014.7
20260507060003 15 235 0.0 3.2 0.00 0.79 0.00 99 1014.7
20260507055603 14 270 0.0 3.2 0.00 0.79 0.00 99 1014.6
20260507055203 14 272 1.6 3.2 0.00 0.79 0.00 99 1014.5
20260507054803 14 262 0.0 3.2 0.00 0.79 0.00 99 1014.6
20260507054403 14 237 1.6 3.2 0.00 0.79 0.00 99 1014.5
20260507054003 14 248 0.0 6.4 0.00 0.79 0.00 99 1014.4
20260507053603 14 258 0.0 6.4 0.00 0.79 0.00 99 1014.2
20260507053204 13 240 3.2 3.2 0.00 0.79 0.00 99 1014.5
20260507052804 14 234 0.0 3.2 0.00 0.79 0.00 99 1014.4
20260507052616 14 230 0.0 3.2 0.00 0.79 0.00 99 1014.3
20260507052005 14 247 0.0 3.2 0.00 0.79 0.00 99 1014.1
20260507051604 14 0 0.0 0.0 0.00 0.79 0.00 99 1014.2
20260507051203 13 0 0.0 0.0 0.00 0.79 0.00 99 1014.3
20260507050804 13 0 0.0 0.0 0.00 0.79 0.00 99 1014.2
20260507050404 13 0 0.0 0.0 0.00 0.79 0.00 99 1014.0
20260507050004 13 0 0.0 0.0 0.00 0.79 0.00 99 1014.1
20260507045603 13 0 0.0 0.0 0.00 0.79 0.00 99 1013.9
20260507045203 13 270 0.0 3.2 0.00 0.79 0.00 99 1014.0
20260507044804 13 270 0.0 3.2 0.00 0.79 0.00 99 1013.9
20260507044403 13 270 0.0 3.2 0.00 0.79 0.00 99 1014.0
20260507044003 13 270 0.0 3.2 0.00 0.79 0.00 99 1014.0
20260507043604 13 270 0.0 3.2 0.00 0.79 0.00 99 1013.8
20260507043203 13 270 0.0 3.2 0.00 0.79 0.00 99 1013.8
20260507043017 13 270 0.0 3.2 0.00 0.79 0.00 99 1013.8
20260507042403 13 270 1.6 3.2 0.00 0.79 0.00 99 1013.8
20260507042216 13 270 0.0 3.2 0.00 0.79 0.00 99 1013.8
20260507041603 13 0 0.0 0.0 0.00 0.79 0.00 99 1013.7
20260507041204 13 0 0.0 0.0 0.00 0.79 0.00 99 1013.5
20260507040805 13 0 0.0 0.0 0.00 0.79 0.00 99 1013.5
20260507040403 13 0 0.0 0.0 0.00 0.79 0.00 99 1013.6
20260507040004 13 0 0.0 0.0 0.00 0.79 0.00 99 1013.5
20260507035603 13 0 0.0 0.0 0.00 0.79 0.00 99 1013.5
20260507035203 13 0 0.0 0.0 0.00 0.79 0.00 99 1013.5
20260507034803 13 0 0.0 0.0 0.00 0.79 0.00 99 1013.4
20260507034616 13 0 0.0 0.0 0.00 0.79 0.00 99 1013.3
20260507034004 13 0 0.0 0.0 0.00 0.81 0.00 99 1013.7
20260507033603 13 0 0.0 0.0 0.00 0.94 0.00 99 1013.7
20260507033203 13 0 0.0 0.0 0.00 0.97 0.00 99 1013.6
20260507032804 13 0 0.0 0.0 0.00 1.09 0.00 99 1013.5
20260507032403 13 22 0.0 3.2 0.00 1.12 0.00 99 1013.5
20260507032004 13 22 0.0 3.2 0.00 1.12 0.00 99 1013.6
20260507031604 13 22 0.0 3.2 0.00 1.12 0.00 99 1013.4
20260507031204 13 356 0.0 3.2 0.00 1.12 0.00 99 1013.5
20260507030804 13 297 1.6 3.2 0.00 1.12 0.00 99 1013.5
20260507030614 12 286 0.0 3.2 0.00 1.12 0.00 99 1013.4
20260507030004 12 304 0.0 3.2 0.00 1.12 0.00 99 1013.3
20260507025604 12 322 0.0 3.2 0.00 1.12 0.00 99 1013.4
20260507025205 12 351 1.6 3.2 0.00 1.12 0.00 99 1013.3
20260507025017 12 299 0.0 3.2 0.00 1.12 0.00 99 1013.3
20260507024403 12 292 0.0 3.2 0.00 1.12 0.00 99 1013.2
20260507024003 12 0 0.0 0.0 0.00 1.12 0.00 99 1013.3
20260507023604 12 0 0.0 0.0 0.00 1.12 0.00 99 1013.5
20260507023203 12 0 0.0 0.0 0.00 1.12 0.00 99 1013.1
20260507023014 12 0 0.0 0.0 0.00 1.12 0.00 99 1013.2
20260507022403 12 0 0.0 0.0 0.00 1.12 0.00 99 1013.4
20260507022217 12 0 0.0 0.0 0.00 1.12 0.00 99 1013.2
20260507021603 12 0 0.0 0.0 0.00 1.12 0.00 99 1013.4
20260507021204 12 0 0.0 0.0 0.00 1.12 0.00 99 1013.4
20260507020803 12 0 0.0 0.0 0.00 1.12 0.00 99 1013.1
20260507020404 12 0 0.0 0.0 0.00 1.12 0.00 99 1013.4
20260507020004 12 0 0.0 0.0 0.00 1.12 0.00 99 1013.2
20260507015603 12 0 0.0 0.0 0.00 1.12 0.00 99 1013.2
20260507015418 12 0 0.0 0.0 0.00 1.12 0.00 99 1013.4
20260507014804 12 0 0.0 0.0 0.00 1.12 0.00 99 1013.3
20260507014404 12 0 0.0 0.0 0.00 1.12 0.00 99 1013.3